DELTA 1 DEB, 10845

Orbit data source: Space-Track

DELTA 1 DEB, 10845 is space debris in SSO originally from a launch on Thu, 29 Jul 1976 UTC launched from the Air Force Western Test Range (AFWTR). Debris objects in space refer to the collection of defunct objects orbiting the Earth. Examples of debris include non-operational satellites, rocket bodies, and fragments generated from explosions, collisions, or faulty payload assembly.

Loading next visibility...
Identifier
10845, 1976-077CR
Orbit
SSO
Country
Flag of USUS
Related business
Manufacturer
Unknown
Mission
Spacecraft
Bus & Motor
Unknown
Mass
Unknown
Launch date (UTC)
1976-07-29 (49 years ago)
Launch vehicle
Unknown
Launch site
Air Force Western Test Range (AFWTR)
Object type
Payload
Rocket body
Debris
Shape & HBR
Unknown shape, 0.1 m
Radar Cross Section
Small (<0.1 m²)

Expand to show TLE details & history
Last TLE update: 1 day ago

TLE from 1 day ago
0 DELTA 1 DEB
1 10845U 76077CR  25310.57340179  .00000097  00000-0  14598-2 0  9997
2 10845 102.3384  56.1599 0176669 235.5070 137.9550 12.10150862176531
Epoch: 2025-11-06T13:45Z
TLE epoch observation values (Epoch: 2025-11-06T13:45:41.914Z)
Latitude
14.42327°
Longitude
160.49581°
Altitude
1,743.776 km
Speed
6.961 km/s
True Right ascension
03h 31m 48s
True Declination
14° 21' 02"
Sunlit
Object was in full shadow at epoch
Visualization orbit readout
Latitude
Unknown
Longitude
Unknown
Altitude
Unknown
Speed
Unknown
Apparent Right ascension
Unknown
Apparent Declination
Unknown
Sunlit
N/A
Visualization observer readout
Local Sidereal Time
13:40:19
Azimuth
Unknown
Elevation
Unknown
Doppler factor
Unknown
Orbital elements
Apogee altitude
1,774.902 km
Perigee altitude
1,491.825 km
Semi-major axis
8,011.501 km
Eccentricity
0.01767
Inclination
102.3384°
RAAN
56.1599°
Arg. of periapsis
235.507°
True anomaly
139.28881°
Mean anomaly
137.955°
Eccentric anomaly
138.62409°
Mean motion
3.02672 °/min
Orbital period
118.94 mins
BSTAR
0.0014598
Loading maneuver chart data...
Computing Atmospheric mass density...
Loading historical data...
Loading historical data...
Loading historical data...
Loading historical data...
Loading historical data...
Loading historical data...
Loading historical data...

Documentation

Showing up to 5 results
|